Regional Weather Roundup
Issued by NWS Wakefield, VA

Home | Current Version | Previous Version | Graphics & Text | Print | Product List | Glossary Off
Versions: 1 2 3 4 5 6 7 8 9 10 11 12 13 14 15 16 17 18 19 20 21 22 23 24 25 26 27 28 29 30 31 32 33 34 35 36 37 38 39 40 41 42 43 44 45 46 47 48 49

000
ASUS41 KAKQ 011414
RWRAKQ

REGIONAL WEATHER ROUNDUP
NATIONAL WEATHER SERVICE WAKEFIELD VA
1000 AM EDT TUE SEP 01 2015

Note: "fair" indicates few or no clouds below 12,000 feet with no
significant weather and/or obstructions to visibility. * = Denotes
station may not report precipitation (e.g., rain,snow,etc.),
thunder or fog.

VAZ042-051-052>054-056-011500-
NORTHERN VIRGINIA

CITY           SKY/WX    TMP DP  RH WIND       PRES   REMARKS
WASH NATIONAL  MOSUNNY   83  69  62 VRB5      30.08R
DULLES         MOSUNNY   81  67  62 NW7       30.09S
FORT BELVOIR   SUNNY     83  69  61 VRB2      30.07S
QUANTICO       PTSUNNY   77  70  79 S6        30.09R
FREDERICKSBRG* SUNNY     80  70  70 NW3       30.08R
STAFFORD*      SUNNY     80  67  65 N5        30.12S
WARRENTON      SUNNY     83  71  66 NW7       30.09S
CULPEPER*      SUNNY     78  68  70 N7        30.10S
MANASSAS*      SUNNY     81  72  74 N7        30.09R
LEESBURG*      SUNNY     82  70  65 N7G16     30.11R
WINCHESTER     SUNNY     82  64  54 N6        30.12S
FRONT ROYAL*   FAIR      79  64  61 S3        30.12S
LURAY*         FAIR      77  63  61 SW3       30.14S
$$

VAZ048-049-060>072-079>083-011500-
CENTRAL AND SOUTH CENTRAL VIRGINIA

CITY           SKY/WX    TMP DP  RH WIND       PRES   REMARKS
RICHMOND       PTSUNNY   79  69  71 CALM      30.09R
CHESTERFIELD*  FAIR      79  61  53 CALM      30.11R
PETERSBURG*    PTSUNNY   78  75  91 CALM      30.10S
HANOVER        SUNNY     77  69  76 CALM      30.11R
TAPPAHANNOCK*  CLOUDY    73  71  92 CALM      30.10R
QUINTON*       PTSUNNY   75  71  85 CALM      30.09R
CHARLOTTSVILLE SUNNY     82  66  58 CALM      30.11R
GORDONSVILLE*  FAIR      82  70  67 CALM      30.10R
ORANGE*        SUNNY     81  68  65 NW7       30.11R
LOUISA*        SUNNY     82  68  61 N6        30.09S
BUMPASS*       FAIR      78  69  74 N3        30.10R
FARMVILLE*     SUNNY     79  74  83 NE5       30.10R
CREWE*         FAIR     N/A N/A N/A CALM      30.10R
FORT PICKETT*  FAIR      76  71  83 NW3       30.10S
CHASE CITY*    FAIR      76  74  94 NW3       30.11R
CLARKSVILLE*   FAIR      73  70  88 CALM      30.10S
SOUTH HILL*    PTSUNNY   74  70  89 SW3       30.16S
LAWRENCEVILLE* CLOUDY    75  72  88 SW3       30.10S
EMPORIA*       CLOUDY    73  70  88 CALM      30.12R
$$

VAZ088>098-011500-
SOUTHEAST VIRGINIA

CITY           SKY/WX    TMP DP  RH WIND       PRES   REMARKS
NORFOLK        CLOUDY    79  70  74 N6        30.08R
VIRGINIA BEACH PTSUNNY   82  71  69 N7        30.08R
NORFOLK NAVAL  PTSUNNY   79  70  74 N6        30.09R
WEST POINT*    PTSUNNY   78  70  75 W3        30.10S
SALUDA*        CLOUDY    73  70  89 NW6       30.08S
NEWPORT NEWS   MOSUNNY   80  70  71 VRB5      30.08S
LANGLEY AFB    PTSUNNY   77  70  80 N3        30.08R
FORT EUSTIS    PTSUNNY   77  77 100 N6        30.07R
WILLIAMSBURG*  MOSUNNY   81  73  78 CALM      30.10R
HR EXEC AP*      N/A     77  72  83 NW3       30.10S
FRANKLIN*      CLOUDY    73  70  91 NW5       30.10S
WAKEFIELD      CLOUDY    75  69  81 CALM      30.10R HAZE
$$

VAZ020-022-025-037-045-011500-
WEST CENTRAL AND SOUTHWEST VIRGINIA

CITY           SKY/WX    TMP DP  RH WIND       PRES   REMARKS
STAUNTON*      SUNNY     77  66  68 CALM      30.18S
WAYNESBORO*    FAIR      78  65  63 CALM      30.17S
HOT SPRINGS VA SUNNY     71  63  75 N6        30.28S
LYNCHBURG      SUNNY     80  66  62 N6        30.14S
DANVILLE       SUNNY     80  68  66 W5        30.12R
SOUTH BOSTON*  FAIR      77  70  80 NW3       30.11R
MARTINSVILLE   SUNNY     80  67  63 CALM      30.17R
ROANOKE        SUNNY     78  64  61 N3        30.18S
BLACKSBURG     SUNNY     74  67  79 NW3       30.25S
DUBLIN*        PTSUNNY   75  67  76 CALM      30.24R
MARION*        SUNNY     76  64  67 CALM      30.27S
HILLSVILLE*    SUNNY     71  65  80 NW3       30.24R
RICHLANDS*     FAIR      72  34  25 CALM      30.26S
WISE*          SUNNY     75  63  64 NE5       30.28R
ABINGDON*      SUNNY     75  63  64 CALM      30.23S
$$

MDZ021>025-VAZ099-100-011500-
SOUTHERN MARYLAND AND THE DELMARVA PENINSULA

CITY           SKY/WX    TMP DP  RH WIND       PRES   REMARKS
PATUXENT RIVER MOSUNNY   78  70  76 CALM      30.07S
BAY BRIDGE APT   N/A     77  68  73 NW5       30.07R
LEONARDTOWN    NOT AVBL
DOVER          SUNNY     81  72  74 VRB6      30.05R
GEORGETOWN     SUNNY     81  70  69 N5        30.07R
EASTON         SUNNY     82  73  74 VRB5      30.10R
CAMBRIDGE      SUNNY     81  72  74 CALM      30.06R
SALISBURY      SUNNY     80  71  74 W5        30.06R
OCEAN CITY     SUNNY     81  70  69 W3        30.06R
WALLOPS ISLAND MOSUNNY   80  73  79 CALM      30.07S
ACCOMACK*      MOSUNNY   77  64  65 NW5       30.08R
$$

NCZ012>017-030>032-011500-
NORTH CENTRAL AND EASTERN NORTH CAROLINA

CITY           SKY/WX    TMP DP  RH WIND       PRES   REMARKS
ROANOKE RAPIDS PTSUNNY   73  70  88 W5        30.11R
RALEIGH        MOSUNNY   78  70  76 CALM      30.12R
ELIZABETH CITY CLOUDY    77  71  82 N6        30.09R
AHOSKIE*       CLOUDY    72  69  92 CALM      30.10R
EDENTON*       CLOUDY    75  71  86 NW5       30.09R
CURRITUCK*     NOT AVBL
KILL DEVIL HLS MOSUNNY   82  75  81 NE3       30.07R
MANTEO         CLOUDY    79  74  83 NE7       30.08R
CAPE HATTERAS  MOSUNNY   81  74  79 VRB6      30.07R
TARBORO*       CLOUDY    75  70  86 CALM      30.11S
GOLDSBORO      CLOUDY    76  71  85 NW6       30.10R
WASHINGTON     CLOUDY    73  71  92 NW5       30.10R
GREENVILLE     CLOUDY    73  72  94 NW3       30.12R
NEW BERN       CLOUDY    77  72  84 N6        30.11R
WILMINGTON     PTSUNNY   76  72  87 NW9       30.12R
$$

VAZ048-011500-
ELSEWHERE

CITY           SKY/WX    TMP DP  RH WIND       PRES   REMARKS
HARRISBURG PA  SUNNY     81  67  62 NW6       30.08S
BALTIMORE      MOSUNNY   84  68  58 VRB3      30.07R
ANNAPOLIS      SUNNY     80  70  71 NW6       30.07R
ANDREWS AFB    SUNNY     83  68  60 N6        30.07R
PHILADELPHIA   SUNNY     85  66  53 NE3       30.06R
HENDERSON NC   SUNNY     78  69  74 CALM      30.12R
GREENSBORO     MOSUNNY   80  68  66 NW5       30.13S
ROCKY MOUNT    CLOUDY    75  70  84 NW5       30.11R
$$

VAZ100-011500-
MARINE

STATION/POSITION TIME  TEMP    WIND        PRES    WAVE   SWELL
                       AIR SEA DIR/SP/G            HT/PER HT/PER
                 (UTC) (F)     (DEG/KT/KT) (MB)    (FT/S) (FT/S)
BRANDYWINE LGT   1300   74 76  300/  7/  8 1017.8R
CAPE MAY NJ      1300   77 79  300/  6/  7 1017.1S
LEWES DE         1300   75 75  320/  4/  5 1017.4R
15NM E FENWICK I 1350   75 78  270/  6/  6 1017.8R   2/ 7   2/ 7
OCEAN-CITY-INLET 1300   76 77  350/  3/  4 1016.8S
THOMAS POINT MD  1300          290/  4       N/A
GOOSES REEF MD   1400   77 79  340/  2/  4 1019.3R
COVE POINT MD    1300   74     330/  2/  3 1018.6R
SOLOMONS ISLAND  1300      80                N/A
BISHOPS HEAD MD  1300   75 77  280/  6/  7 1017.2R
PINEY POINT MD   1305          290/  6/  7   N/A
POTOMAC MD       1400   72 79  300/  6/  8 1017.7R   0
CAMBRIDGE MD     1300   76 80  260/  3/  6 1016.9S
LEWISETTA VA     1300   71 79  270/  3/  4 1017.9S
RAPPAHANNOCK LGT 1300          310/  5/  6 1018.6R
STINGRAY PT      1300   75 80  300/  6/  6 1018.7R   0
YORK RVR RNG VA  1300   74     330/  5/  6 1017.8R
YORKTOWN VA      1300   74 80  290/  4/  5 1018.0R
JAMESTOWN VA     1400   73 80  270/  4/  4   N/A
DOMINION TERM VA 1300   75     290/  7/  8 1018.2R
KIPTOPEKE VA     1300      78  340/  9/ 10   N/A
CHES BAY BRIDGE  1300   75 79  300/  9/ 11 1017.6R
CAPE HENRY VA    1300   76     320/ 11/ 12   N/A
CHESAPEAKE LGHT  1300   77     360/  8/  9 1018.6R
WILLOUBY STN VA  1300   76     340/  2/  3 1019.1R
CAPE HENRY BUOY  1328      78                N/A     2/ 8
1ST LANDING BUOY 1400      79              1018.2R   1/ 4
CAPE CHARLES BUO 1326      78                N/A     2/ 8   2/ 8
OFFSHORE WE BUOY 1311      78                N/A     2/ 8   2/ 8
64NM E OF VA BCH 1350   78 78   30/  8/ 10 1017.9R   3/ 9   2/ 9
DUCK PIER NC     1300   77 78   30/  5/  6 1017.1R
44100 DUCK FRF   1324      78                N/A     2/10
44056 DUCK FRF   1311      78                N/A     2/ 9
OREGON INLET NC  1300   78 79  350/  5/  8 1017.5R
HATTERAS NC      1300   78 79  350/ 10/ 11 1017.4R
DIAMOND SHLS NC  1350   79 84   10/  8/ 10 1018.1R   3/ 6   3/ 6
CAPE LOOKOUT NC  1400   78     310/  5/  6 1018.9R
$$


USA.gov is the U.S. government's official web portal to all federal, state and local government web resources and services.